Home   Weather   Denton   Past weeks
Flag for USA

Past Weather in Denton, Texas, USA — Yesterday and Last 2 Weeks

Now
74 °F

Mild.


Feels Like: 75 °F
Forecast: 70 / 52 °F
Wind: 5 mph from Northeast

Location: Denton - MADIS Station

Current Time: Oct 15, 2019 at 10:03:02 pm

Latest Report: Oct 15, 2019 at 9:00 pm


Visibility: N/A

Pressure: 29.22 "Hg

Humidity: 77%

Dew Point: 66 °F

Location of DentonLocation

Past Weather in Denton — Graph

°F

Denton Temperature Yesterday

Maximum temperature yesterday: 77 °F (at 12:30 pm)
Minimum temperature yesterday: 62 °F (at 1:50 am)
Average temperature yesterday: 68 °F

High & Low Weather Summary for the Past Weeks

 TemperatureHumidityPressure
High96 °F (Oct 3, 4:15 pm)95% (Oct 15, 3:30 am)29.64 "Hg (Oct 15, 3:30 am)
Low34 °F (Oct 12, 6:35 am)22% (Oct 12, 2:50 pm)29.05 "Hg (Oct 10, 7:05 pm)
Average73 °F64%29.34 "Hg
* Reported Sep 30 9:20 pm — Oct 15 9:00 pm, Denton. Weather by CustomWeather, © 2019

Note: Actual official high and low records may vary slightly from our data, if they occured in-between our weather recording intervals... More about our weather records

Advertising

Denton Weather History for the Previous 24 Hours

Scroll right to see more
 ConditionsComfort  
Time TempWeatherWind HumidityBarometerVisibility
9:00 pm
Tue, Oct 15
74 °FMild.5 mph77%29.22 "HgN/A
6:50 pm84 °FWarm.3 mph68%29.12 "HgN/A
6:35 pm84 °FWarm.3 mph67%29.12 "HgN/A
6:20 pm85 °FWarm.3 mph65%29.11 "HgN/A
5:50 pm88 °FHot.3 mph61%29.11 "HgN/A
5:15 pm88 °FHot.4 mph60%29.10 "HgN/A
4:30 pm89 °FHot.5 mph58%29.12 "HgN/A
4:20 pm88 °FHot.4 mph61%29.12 "HgN/A
3:30 pm87 °FWarm.6 mph62%29.13 "HgN/A
3:20 pm86 °FWarm.5 mph64%29.13 "HgN/A
2:50 pm87 °FWarm.5 mph63%29.14 "HgN/A
2:35 pm87 °FWarm.6 mph62%29.14 "HgN/A
2:20 pm86 °FWarm.6 mph62%29.15 "HgN/A
1:05 pm83 °FWarm.5 mph70%29.20 "HgN/A
12:35 pm82 °FWarm.5 mph73%29.20 "HgN/A
12:20 pm81 °FWarm.5 mph74%29.20 "HgN/A
11:50 am80 °FWarm.5 mph78%29.21 "HgN/A
11:35 am79 °FWarm.5 mph78%29.21 "HgN/A
11:20 am79 °FWarm.5 mph79%29.22 "HgN/A
10:20 am76 °FMild.2 mph88%29.22 "HgN/A
10:15 am76 °FMild.3 mph88%29.22 "HgN/A
8:30 am73 °FMild.1 mph95%29.21 "HgN/A
8:20 am72 °FMild.1 mph95%29.21 "HgN/A
7:30 am72 °FMild.1 mph95%29.21 "HgN/A
7:15 am72 °FMild.1 mph95%29.21 "HgN/A
6:45 am72 °FMild.No wind95%29.22 "HgN/A
6:35 am72 °FMild.No wind95%29.22 "HgN/A
6:15 am72 °FMild.1 mph95%29.21 "HgN/A
5:15 am71 °FMild.1 mph95%29.20 "HgN/A
4:30 am70 °FMild.2 mph95%29.21 "HgN/A
3:30 am70 °FMild.2 mph95%29.22 "HgN/A
3:15 am70 °FMild.2 mph94%29.22 "HgN/A
12:50 am69 °FMild.2 mph93%29.25 "HgN/A
12:30 am69 °FMild.4 mph92%29.25 "HgN/A
12:15 am69 °FMild.4 mph92%29.26 "HgN/A
11:50 pm
Mon, Oct 14
69 °FMild.3 mph92%29.27 "HgN/A
11:20 pm69 °FMild.2 mph91%29.27 "HgN/A
10:35 pm69 °FMild.2 mph91%29.27 "HgN/A
10:20 pm69 °FMild.1 mph91%29.27 "HgN/A
Weather by CustomWeather, © 2019

See weather overview